Date String (YYYY-MM-DD hh:mm:ss) UTC,Instrument flags,absolute air pressure of the measurement (hPa),sample flow rate (lpm),inlet stack bypass flow (lpm),air temperature of the measurement (°C),ambient temperature measured by the external sensor (°C),aerosol sample conditioner tube jacket temperature (°C),OPC LED temperature (°C),internal box temperature (°C),relative humidity of the measurement (%),span deviation,mass concentration of particles derived from Lorenz-Mie calculation of OPC scattering (μg/m³),mass concentration of particles derived from Lorenz-Mie calculation of OPC scattering (μg/m³),mass concentration of particles derived from Lorenz-Mie calculation of OPC scattering (μg/m³)
DateTimeUTC,F1_M11,P_M11,Q1_M11,Q2_M11,T1_M11,T2_M11,T3_M11,T4_M11,T5_M11,U1_M11,ZSPAN_M11,X0_M11,X2_M11,X1_M11
2024-03-21 20:00:00,SystemResetWarning,0824.4,5.00,000.00,025.1,024.5,000.0,033.4,026.9,11.4,0000.0,0008.96,0002.66,0001.86
2024-03-21 20:01:00,SystemResetWarning,0824.4,5.01,000.00,025.1,024.6,000.0,033.4,026.9,11.1,0000.0,0008.74,0002.66,0001.87
2024-03-21 20:02:00,SystemResetWarning,0824.4,4.99,000.00,025.2,024.6,000.0,033.4,027.0,10.8,0000.0,0008.14,0002.66,0001.86
2024-03-21 20:03:00,SystemResetWarning,0824.4,5.00,000.00,025.2,024.6,000.0,033.4,027.0,10.6,0000.0,0008.07,0002.64,0001.85
2024-03-21 20:04:00,SystemResetWarning,0824.4,5.00,000.00,025.2,024.6,000.0,033.5,027.0,10.9,0000.0,0007.52,0002.66,0001.85
2024-03-21 20:05:00,SystemResetWarning,0824.4,5.00,000.00,025.2,024.6,000.0,033.5,027.0,10.9,0000.0,0007.68,0002.66,0001.86
2024-03-21 20:06:00,SystemResetWarning,0824.4,5.00,000.00,025.2,024.7,000.0,033.5,027.0,11.4,0000.0,0006.81,0002.63,0001.86
2024-03-21 20:07:00,SystemResetWarning,0824.4,5.00,000.00,025.2,024.7,000.0,033.5,027.0,11.0,0000.0,0007.28,0002.62,0001.86
2024-03-21 20:08:00,SystemResetWarning,0824.4,5.00,000.00,025.3,024.7,000.0,033.5,027.1,10.7,0000.0,0007.43,0002.58,0001.87
2024-03-21 20:09:00,SystemResetWarning,0824.4,5.00,000.00,025.3,024.7,000.0,033.5,027.1,10.8,0000.0,0007.33,0002.53,0001.87
2024-03-21 20:10:00,SystemResetWarning,0824.4,5.00,000.00,025.3,024.7,000.0,033.6,027.1,10.9,0000.0,0006.97,0002.48,0001.86
2024-03-21 20:11:00,SystemResetWarning,0824.4,5.00,000.00,025.3,024.8,000.0,033.6,027.1,10.8,0000.0,0008.15,0002.49,0001.88
2024-03-21 20:12:00,SystemResetWarning,0824.4,5.00,000.00,025.3,024.8,000.0,033.6,027.1,10.5,0000.0,0008.45,0002.50,0001.89
2024-03-21 20:13:00,SystemResetWarning,0824.3,5.00,000.00,025.3,024.8,000.0,033.6,027.1,09.9,0000.0,0008.44,0002.58,0001.94
2024-03-21 20:14:00,SystemResetWarning,0824.3,4.99,000.00,025.3,024.8,000.0,033.6,027.2,09.2,0000.0,0008.49,0002.66,0002.01
2024-03-21 20:15:00,SystemResetWarning,0824.2,5.00,000.00,025.4,024.8,000.0,033.6,027.2,09.7,0000.0,0008.30,0002.75,0002.08
2024-03-21 20:16:00,SystemResetWarning,0824.2,4.99,000.00,025.4,024.8,000.0,033.6,027.2,09.8,0000.0,0007.98,0002.83,0002.16
2024-03-21 20:17:00,SystemResetWarning,0824.1,5.00,000.00,025.4,024.9,000.0,033.7,027.2,09.8,0000.0,0008.11,0002.96,0002.25
2024-03-21 20:18:00,SystemResetWarning,0824.2,5.00,000.00,025.4,024.9,000.0,033.7,027.2,09.6,0000.0,0007.81,0003.04,0002.33
2024-03-21 20:19:00,SystemResetWarning,0824.2,5.00,000.00,025.4,024.9,000.0,033.7,027.2,09.6,0000.0,0007.68,0003.13,0002.40
2024-03-21 20:20:00,SystemResetWarning,0824.1,5.00,000.00,025.5,024.9,000.0,033.7,027.3,09.2,0000.0,0007.74,0003.20,0002.47
2024-03-21 20:21:00,SystemResetWarning,0824.1,5.01,000.00,025.5,024.9,000.0,033.7,027.3,08.9,0000.0,0007.86,0003.28,0002.57
2024-03-21 20:22:00,SystemResetWarning,0824.2,5.01,000.00,025.5,024.9,000.0,033.7,027.3,08.9,0000.0,0006.23,0003.31,0002.62
2024-03-21 20:23:00,SystemResetWarning,0824.2,5.00,000.00,025.5,025.0,000.0,033.8,027.3,09.0,0000.0,0005.37,0003.33,0002.68
2024-03-21 20:24:00,SystemResetWarning,0824.1,5.00,000.00,025.5,025.0,000.0,033.8,027.3,09.0,0000.0,0005.37,0003.34,0002.70
2024-03-21 20:25:00,SystemResetWarning,0824.0,4.99,000.00,025.5,025.0,000.0,033.8,027.3,09.0,0000.0,0005.47,0003.34,0002.68
2024-03-21 20:26:00,SystemResetWarning,0824.0,5.00,000.00,025.5,025.0,000.0,033.8,027.3,09.2,0000.0,0006.61,0003.33,0002.65
2024-03-21 20:27:00,SystemResetWarning,0824.0,5.00,000.00,025.6,025.0,000.0,033.8,027.3,09.6,0000.0,0006.66,0003.30,0002.62
2024-03-21 20:28:00,SystemResetWarning,0824.0,5.02,000.00,025.6,025.0,000.0,033.8,027.4,09.2,0000.0,0006.60,0003.28,0002.58
2024-03-21 20:29:00,SystemResetWarning,0823.9,5.01,000.00,025.6,025.0,000.0,033.8,027.4,09.3,0000.0,0006.77,0003.27,0002.56
2024-03-21 20:30:00,SystemResetWarning,0823.9,4.98,000.00,025.6,025.0,000.0,033.9,027.4,09.6,0000.0,0006.82,0003.26,0002.55
2024-03-21 20:31:00,SystemResetWarning,0823.9,5.00,000.00,025.6,025.0,000.0,033.9,027.4,09.3,0000.0,0006.75,0003.22,0002.54
2024-03-21 20:32:00,SystemResetWarning,0824.0,5.01,000.00,025.6,025.0,000.0,033.9,027.4,09.3,0000.0,0006.67,0003.18,0002.49
2024-03-21 20:33:00,SystemResetWarning,0824.0,5.01,000.00,025.6,025.0,000.0,033.9,027.4,09.1,0000.0,0006.65,0003.17,0002.47
2024-03-21 20:34:00,SystemResetWarning,0824.0,4.99,000.00,025.7,025.1,000.0,033.9,027.4,09.4,0000.0,0006.63,0003.17,0002.45
2024-03-21 20:35:00,SystemResetWarning,0823.9,4.99,000.00,025.7,025.1,000.0,033.9,027.4,09.0,0000.0,0006.51,0003.13,0002.42
2024-03-21 20:36:00,SystemResetWarning,0823.9,5.00,000.00,025.7,025.1,000.0,034.0,027.5,09.1,0000.0,0006.30,0003.11,0002.42
2024-03-21 20:37:00,SystemResetWarning,0823.9,5.02,000.00,025.7,025.1,000.0,034.0,027.5,09.2,0000.0,0005.14,0003.11,0002.44
2024-03-21 20:38:00,SystemResetWarning,0823.8,4.99,000.00,025.7,025.1,000.0,034.0,027.5,09.5,0000.0,0004.90,0003.12,0002.46
2024-03-21 20:39:00,SystemResetWarning,0823.9,4.99,000.00,025.7,025.1,000.0,034.0,027.5,09.2,0000.0,0005.19,0003.13,0002.49
2024-03-21 20:40:00,SystemResetWarning,0823.8,5.01,000.00,025.7,025.1,000.0,034.0,027.5,09.2,0000.0,0005.51,0003.17,0002.53
2024-03-21 20:41:00,SystemResetWarning,0823.8,5.02,000.00,025.7,025.1,000.0,034.0,027.5,09.2,0000.0,0005.79,0003.20,0002.55
2024-03-21 20:42:00,SystemResetWarning,0823.8,4.99,000.00,025.7,025.1,000.0,034.0,027.5,09.3,0000.0,0006.16,0003.24,0002.58
2024-03-21 20:43:00,SystemResetWarning,0823.8,5.00,000.00,025.8,025.2,000.0,034.1,027.6,09.0,0000.0,0006.16,0003.26,0002.62
2024-03-21 20:44:00,SystemResetWarning,0823.8,4.99,000.00,025.8,025.2,000.0,034.1,027.6,09.2,0000.0,0006.11,0003.27,0002.65
2024-03-21 20:45:00,SystemResetWarning,0823.8,4.99,000.00,025.8,025.2,000.0,034.1,027.6,09.3,0000.0,0006.32,0003.32,0002.70
2024-03-21 20:46:00,SystemResetWarning,0823.8,5.01,000.00,025.8,025.2,000.0,034.1,027.6,09.2,0000.0,0006.60,0003.39,0002.74
2024-03-21 20:47:00,SystemResetWarning,0823.8,5.00,000.00,025.8,025.2,000.0,034.1,027.6,09.3,0000.0,0007.76,0003.45,0002.77
2024-03-21 20:48:00,SystemResetWarning,0823.8,5.00,000.00,025.8,025.2,000.0,034.1,027.6,09.7,0000.0,0007.98,0003.44,0002.78
2024-03-21 20:49:00,SystemResetWarning,0823.8,5.00,000.00,025.8,025.2,000.0,034.1,027.6,09.2,0000.0,0008.31,0003.46,0002.80
2024-03-21 20:50:00,SystemResetWarning,0823.8,5.01,000.00,025.8,025.2,000.0,034.2,027.6,09.5,0000.0,0008.43,0003.51,0002.82
2024-03-21 20:51:00,SystemResetWarning,0823.8,5.00,000.00,025.9,025.3,000.0,034.2,027.7,09.5,0000.0,0008.19,0003.54,0002.83
2024-03-21 20:52:00,SystemResetWarning,0823.8,4.99,000.00,025.9,025.3,000.0,034.2,027.7,09.2,0000.0,0008.07,0003.54,0002.84
2024-03-21 20:53:00,SystemResetWarning,0823.8,5.00,000.00,025.9,025.3,000.0,034.2,027.7,09.1,0000.0,0007.92,0003.55,0002.86
2024-03-21 20:54:00,SystemResetWarning,0823.8,5.00,000.00,025.9,025.3,000.0,034.2,027.7,09.1,0000.0,0007.92,0003.56,0002.87
2024-03-21 20:55:00,SystemResetWarning,0823.7,5.02,000.00,025.9,025.3,000.0,034.2,027.7,09.0,0000.0,0008.11,0003.61,0002.89
2024-03-21 20:56:00,SystemResetWarning,0823.7,5.00,000.00,025.9,025.3,000.0,034.2,027.7,09.2,0000.0,0008.69,0003.63,0002.90
2024-03-21 20:57:00,SystemResetWarning,0823.7,5.00,000.00,025.9,025.3,000.0,034.2,027.7,08.9,0000.0,0008.92,0003.63,0002.90
2024-03-21 20:58:00,SystemResetWarning,0823.6,4.99,000.00,026.0,025.4,000.0,034.3,027.7,09.3,0000.0,0008.21,0003.59,0002.89
2024-03-21 20:59:00,SystemResetWarning,0823.7,4.99,000.00,026.0,025.4,000.0,034.3,027.8,09.0,0000.0,0008.02,0003.62,0002.91
